| time (UTC) | temp F | wind direction | speed MPH | gust MPH | rain 1hr in | rain 24hr in | rain mn in | humidity % | barometer mb |
| 20260506001426 | 71 | 0 | 0.0 | 0.0 | 0.00 | 0.00 | 0.01 | 63 | 1007.2 |
| 20260506000926 | 71 | 0 | 0.0 | 0.0 | 0.00 | 0.00 | 0.01 | 63 | 1007.1 |
| 20260506000427 | 71 | 0 | 0.0 | 0.0 | 0.00 | 0.00 | 0.01 | 63 | 1007.0 |
| 20260505235926 | 71 | 0 | 0.0 | 0.0 | 0.00 | 0.00 | 0.01 | 62 | 1007.1 |
| 20260505235426 | 72 | 0 | 0.0 | 0.0 | 0.00 | 0.00 | 0.01 | 62 | 1007.1 |
| 20260505234926 | 72 | 0 | 0.0 | 0.0 | 0.00 | 0.00 | 0.01 | 61 | 1007.0 |
| 20260505234426 | 72 | 0 | 0.0 | 0.0 | 0.00 | 0.00 | 0.01 | 61 | 1007.0 |
| 20260505233926 | 72 | 290 | 0.0 | 2.0 | 0.00 | 0.00 | 0.01 | 61 | 1006.9 |
| 20260505233426 | 73 | 0 | 0.0 | 0.0 | 0.00 | 0.00 | 0.01 | 60 | 1007.0 |
| 20260505232926 | 73 | 279 | 0.0 | 1.0 | 0.00 | 0.00 | 0.01 | 60 | 1007.0 |
| 20260505232426 | 73 | 0 | 0.0 | 0.0 | 0.00 | 0.00 | 0.01 | 59 | 1007.1 |
| 20260505231927 | 73 | 249 | 0.0 | 2.0 | 0.00 | 0.00 | 0.01 | 59 | 1007.1 |
| 20260505231426 | 74 | 0 | 0.0 | 0.0 | 0.00 | 0.00 | 0.01 | 58 | 1007.1 |
| 20260505230926 | 74 | 242 | 0.0 | 1.0 | 0.00 | 0.00 | 0.01 | 57 | 1007.0 |
| 20260505230426 | 74 | 235 | 0.0 | 1.0 | 0.00 | 0.00 | 0.01 | 57 | 1007.1 |
| 20260505225926 | 74 | 227 | 0.0 | 1.0 | 0.00 | 0.00 | 0.01 | 56 | 1007.1 |
| 20260505225426 | 75 | 269 | 0.0 | 2.0 | 0.00 | 0.00 | 0.01 | 54 | 1007.1 |
| 20260505224926 | 75 | 249 | 1.0 | 2.0 | 0.00 | 0.00 | 0.01 | 54 | 1007.2 |
| 20260505224427 | 75 | 237 | 1.0 | 2.0 | 0.00 | 0.00 | 0.01 | 53 | 1007.2 |
| 20260505223926 | 75 | 229 | 1.0 | 3.0 | 0.00 | 0.00 | 0.01 | 52 | 1007.3 |
| 20260505223427 | 76 | 233 | 0.0 | 1.0 | 0.00 | 0.00 | 0.01 | 51 | 1007.3 |
| 20260505222926 | 76 | 245 | 2.0 | 4.0 | 0.00 | 0.00 | 0.01 | 50 | 1007.2 |
| 20260505222429 | 76 | 233 | 3.0 | 6.0 | 0.00 | 0.00 | 0.01 | 49 | 1007.1 |
| 20260505221926 | 76 | 234 | 1.0 | 3.0 | 0.00 | 0.00 | 0.01 | 49 | 1007.1 |
| 20260505221427 | 76 | 240 | 3.0 | 7.0 | 0.00 | 0.00 | 0.01 | 49 | 1007.2 |
| 20260505220927 | 76 | 237 | 1.0 | 2.0 | 0.00 | 0.00 | 0.01 | 49 | 1007.2 |
| 20260505220426 | 76 | 0 | 0.0 | 0.0 | 0.00 | 0.00 | 0.01 | 49 | 1007.1 |
| 20260505215926 | 76 | 236 | 2.0 | 4.0 | 0.00 | 0.00 | 0.01 | 48 | 1007.1 |
| 20260505215426 | 77 | 251 | 1.0 | 7.0 | 0.00 | 0.00 | 0.01 | 48 | 1007.1 |
| 20260505214926 | 77 | 188 | 2.0 | 5.0 | 0.00 | 0.00 | 0.01 | 49 | 1007.0 |
| 20260505214427 | 77 | 189 | 0.0 | 1.0 | 0.00 | 0.00 | 0.01 | 50 | 1007.0 |
| 20260505213927 | 77 | 289 | 1.0 | 2.0 | 0.00 | 0.00 | 0.01 | 50 | 1006.9 |
| 20260505213427 | 77 | 215 | 1.0 | 2.0 | 0.00 | 0.00 | 0.01 | 49 | 1006.8 |
| 20260505212926 | 77 | 254 | 0.0 | 1.0 | 0.00 | 0.00 | 0.01 | 49 | 1006.6 |
| 20260505212426 | 77 | 255 | 1.0 | 4.0 | 0.00 | 0.00 | 0.01 | 48 | 1006.6 |
| 20260505211926 | 77 | 214 | 0.0 | 1.0 | 0.00 | 0.00 | 0.01 | 49 | 1006.5 |
| 20260505211426 | 77 | 250 | 1.0 | 2.0 | 0.00 | 0.00 | 0.01 | 50 | 1006.4 |
| 20260505210927 | 76 | 227 | 1.0 | 2.0 | 0.00 | 0.00 | 0.01 | 50 | 1006.4 |
| 20260505210428 | 77 | 190 | 0.0 | 2.0 | 0.00 | 0.00 | 0.01 | 51 | 1006.5 |
| 20260505205926 | 77 | 212 | 1.0 | 3.0 | 0.00 | 0.00 | 0.01 | 50 | 1006.5 |
| 20260505205428 | 77 | 214 | 0.0 | 1.0 | 0.00 | 0.00 | 0.01 | 49 | 1006.5 |
| 20260505204927 | 77 | 256 | 1.0 | 3.0 | 0.00 | 0.00 | 0.01 | 47 | 1006.5 |
| 20260505204427 | 77 | 243 | 1.0 | 2.0 | 0.00 | 0.00 | 0.01 | 47 | 1006.5 |
| 20260505203926 | 77 | 220 | 1.0 | 2.0 | 0.00 | 0.00 | 0.01 | 46 | 1006.5 |
| 20260505203426 | 77 | 233 | 1.0 | 3.0 | 0.00 | 0.00 | 0.01 | 46 | 1006.6 |
| 20260505202926 | 77 | 235 | 1.0 | 3.0 | 0.00 | 0.00 | 0.01 | 45 | 1006.6 |
| 20260505202426 | 78 | 226 | 2.0 | 5.0 | 0.00 | 0.00 | 0.01 | 45 | 1006.6 |
| 20260505201927 | 78 | 245 | 4.0 | 9.0 | 0.00 | 0.00 | 0.01 | 42 | 1006.5 |
| 20260505201428 | 78 | 229 | 3.0 | 6.0 | 0.00 | 0.00 | 0.01 | 43 | 1006.3 |
| 20260505200927 | 78 | 219 | 1.0 | 2.0 | 0.00 | 0.00 | 0.01 | 46 | 1006.2 |
| 20260505200430 | 79 | 242 | 1.0 | 2.0 | 0.00 | 0.00 | 0.01 | 45 | 1006.3 |
| 20260505195928 | 79 | 250 | 2.0 | 3.0 | 0.00 | 0.00 | 0.01 | 42 | 1006.3 |
| 20260505195428 | 79 | 259 | 2.0 | 5.0 | 0.00 | 0.00 | 0.01 | 42 | 1006.2 |
| 20260505194927 | 79 | 238 | 2.0 | 2.0 | 0.00 | 0.00 | 0.01 | 42 | 1006.3 |
| 20260505194427 | 80 | 243 | 1.0 | 2.0 | 0.00 | 0.00 | 0.01 | 41 | 1006.3 |
| 20260505193926 | 80 | 256 | 2.0 | 6.0 | 0.00 | 0.00 | 0.01 | 39 | 1006.3 |
| 20260505193427 | 80 | 242 | 2.0 | 2.0 | 0.00 | 0.00 | 0.01 | 39 | 1006.2 |
| 20260505192927 | 80 | 257 | 4.0 | 7.0 | 0.00 | 0.00 | 0.01 | 38 | 1006.2 |
| 20260505192430 | 80 | 247 | 2.0 | 3.0 | 0.00 | 0.00 | 0.01 | 39 | 1006.3 |
| 20260505191926 | 80 | 253 | 4.0 | 6.0 | 0.00 | 0.00 | 0.01 | 38 | 1006.3 |
| 20260505191427 | 81 | 247 | 4.0 | 7.0 | 0.00 | 0.00 | 0.01 | 38 | 1006.1 |
| 20260505190926 | 81 | 243 | 4.0 | 9.0 | 0.00 | 0.00 | 0.01 | 38 | 1006.3 |
| 20260505190427 | 81 | 273 | 2.0 | 4.0 | 0.00 | 0.00 | 0.01 | 39 | 1006.1 |
| 20260505185926 | 80 | 267 | 3.0 | 6.0 | 0.00 | 0.00 | 0.01 | 40 | 1006.1 |
| 20260505185427 | 80 | 243 | 3.0 | 7.0 | 0.00 | 0.00 | 0.01 | 41 | 1006.2 |
| 20260505184936 | 80 | 250 | 3.0 | 5.0 | 0.00 | 0.00 | 0.01 | 41 | 1006.2 |
| 20260505184427 | 80 | 251 | 2.0 | 4.0 | 0.00 | 0.00 | 0.01 | 42 | 1006.1 |
| 20260505183926 | 80 | 245 | 4.0 | 7.0 | 0.00 | 0.00 | 0.01 | 41 | 1006.3 |
| 20260505183426 | 80 | 251 | 2.0 | 4.0 | 0.00 | 0.00 | 0.01 | 43 | 1006.5 |
| 20260505182927 | 81 | 245 | 2.0 | 4.0 | 0.00 | 0.00 | 0.01 | 42 | 1006.5 |
| 20260505182427 | 81 | 254 | 4.0 | 9.0 | 0.00 | 0.00 | 0.01 | 40 | 1006.5 |
| 20260505181926 | 81 | 255 | 4.0 | 8.0 | 0.00 | 0.00 | 0.01 | 41 | 1006.5 |
| 20260505181427 | 81 | 259 | 2.0 | 4.0 | 0.00 | 0.00 | 0.01 | 41 | 1006.5 |
| 20260505180927 | 81 | 249 | 3.0 | 7.0 | 0.00 | 0.00 | 0.01 | 43 | 1006.7 |
| 20260505180426 | 81 | 234 | 3.0 | 6.0 | 0.00 | 0.00 | 0.01 | 42 | 1006.8 |
| 20260505175926 | 81 | 255 | 3.0 | 5.0 | 0.00 | 0.00 | 0.01 | 42 | 1007.0 |
| 20260505175426 | 81 | 255 | 4.0 | 7.0 | 0.00 | 0.00 | 0.01 | 42 | 1006.9 |
| 20260505174926 | 80 | 252 | 2.0 | 6.0 | 0.00 | 0.00 | 0.01 | 43 | 1006.9 |
| 20260505174429 | 80 | 251 | 4.0 | 8.0 | 0.00 | 0.00 | 0.01 | 43 | 1007.0 |
| 20260505173928 | 80 | 251 | 4.0 | 9.0 | 0.00 | 0.00 | 0.01 | 42 | 1007.1 |
| 20260505173429 | 80 | 242 | 2.0 | 3.0 | 0.00 | 0.00 | 0.01 | 44 | 1006.9 |
| 20260505172926 | 80 | 245 | 4.0 | 9.0 | 0.00 | 0.00 | 0.01 | 42 | 1007.1 |
| 20260505172426 | 80 | 276 | 3.0 | 5.0 | 0.00 | 0.00 | 0.01 | 43 | 1007.2 |
| 20260505171926 | 79 | 251 | 4.0 | 6.0 | 0.00 | 0.00 | 0.01 | 43 | 1007.3 |
| 20260505171427 | 79 | 248 | 4.0 | 7.0 | 0.00 | 0.00 | 0.01 | 44 | 1007.2 |
| 20260505170927 | 79 | 256 | 3.0 | 7.0 | 0.00 | 0.00 | 0.01 | 44 | 1007.5 |
| 20260505170427 | 79 | 258 | 5.0 | 9.0 | 0.00 | 0.00 | 0.01 | 45 | 1007.3 |
| 20260505165927 | 79 | 247 | 2.0 | 4.0 | 0.00 | 0.00 | 0.01 | 46 | 1007.5 |
| 20260505165427 | 79 | 256 | 4.0 | 8.0 | 0.00 | 0.00 | 0.01 | 45 | 1007.5 |
| 20260505164928 | 79 | 235 | 3.0 | 7.0 | 0.00 | 0.00 | 0.01 | 47 | 1007.5 |
| 20260505164426 | 79 | 241 | 2.0 | 3.0 | 0.00 | 0.00 | 0.01 | 47 | 1007.3 |
| 20260505163926 | 80 | 244 | 4.0 | 6.0 | 0.00 | 0.00 | 0.01 | 45 | 1007.5 |
| 20260505163426 | 79 | 244 | 2.0 | 6.0 | 0.00 | 0.00 | 0.01 | 47 | 1007.5 |
| 20260505162927 | 79 | 248 | 3.0 | 7.0 | 0.00 | 0.00 | 0.01 | 47 | 1007.5 |
| 20260505162426 | 79 | 250 | 4.0 | 7.0 | 0.00 | 0.00 | 0.01 | 46 | 1007.6 |
| 20260505161927 | 78 | 245 | 2.0 | 4.0 | 0.00 | 0.00 | 0.01 | 48 | 1007.6 |
| 20260505161432 | 78 | 244 | 2.0 | 4.0 | 0.00 | 0.00 | 0.01 | 50 | 1007.8 |
| 20260505160926 | 78 | 257 | 4.0 | 7.0 | 0.00 | 0.00 | 0.01 | 49 | 1007.9 |
| 20260505160427 | 78 | 256 | 4.0 | 8.0 | 0.00 | 0.00 | 0.01 | 48 | 1007.9 |
| 20260505152927 | 78 | 246 | 2.0 | 5.0 | 0.00 | 0.00 | 0.01 | 51 | 1008.2 |
| 20260505152427 | 78 | 245 | 3.0 | 6.0 | 0.00 | 0.00 | 0.01 | 50 | 1008.2 |
| 20260505151929 | 78 | 249 | 4.0 | 9.0 | 0.00 | 0.00 | 0.01 | 50 | 1008.2 |
| 20260505151427 | 78 | 267 | 3.0 | 7.0 | 0.00 | 0.00 | 0.01 | 50 | 1008.2 |
| 20260505150928 | 78 | 240 | 1.0 | 2.0 | 0.00 | 0.00 | 0.01 | 51 | 1008.1 |
| 20260505150426 | 78 | 252 | 3.0 | 7.0 | 0.00 | 0.00 | 0.01 | 48 | 1008.1 |
| 20260505140427 | 73 | 108 | 0.0 | 0.0 | 0.00 | 0.00 | 0.01 | 60 | 1008.3 |
| 20260505124926 | 59 | 229 | 0.0 | 0.0 | 0.00 | 0.00 | 0.01 | 86 | 1008.7 |
| 20260505124428 | 58 | 0 | 0.0 | 0.0 | 0.00 | 0.00 | 0.01 | 88 | 1008.8 |
| 20260505123926 | 57 | 0 | 0.0 | 0.0 | 0.00 | 0.00 | 0.01 | 90 | 1008.8 |
| 20260505123426 | 56 | 0 | 0.0 | 0.0 | 0.00 | 0.00 | 0.01 | 91 | 1008.9 |
| 20260505122926 | 56 | 0 | 0.0 | 0.0 | 0.00 | 0.00 | 0.01 | 91 | 1008.9 |
| 20260505122426 | 56 | 219 | 0.0 | 1.0 | 0.00 | 0.00 | 0.01 | 91 | 1009.0 |
| 20260505121926 | 56 | 0 | 0.0 | 0.0 | 0.00 | 0.00 | 0.01 | 91 | 1009.0 |
| 20260505121427 | 56 | 0 | 0.0 | 0.0 | 0.00 | 0.00 | 0.01 | 91 | 1009.0 |
| 20260505120926 | 56 | 0 | 0.0 | 0.0 | 0.00 | 0.00 | 0.01 | 90 | 1009.0 |
| 20260505120426 | 56 | 0 | 0.0 | 0.0 | 0.00 | 0.00 | 0.01 | 90 | 1009.0 |
| 20260505115926 | 56 | 13 | 0.0 | 2.0 | 0.00 | 0.00 | 0.01 | 90 | 1009.0 |
| 20260505115426 | 55 | 59 | 0.0 | 1.0 | 0.00 | 0.00 | 0.01 | 89 | 1009.1 |
| 20260505114927 | 55 | 0 | 0.0 | 0.0 | 0.00 | 0.00 | 0.01 | 90 | 1009.2 |
| 20260505114427 | 55 | 0 | 0.0 | 0.0 | 0.00 | 0.00 | 0.01 | 91 | 1009.1 |
| 20260505113926 | 55 | 225 | 0.0 | 1.0 | 0.00 | 0.00 | 0.01 | 92 | 1009.0 |
| 20260505113426 | 55 | 11 | 0.0 | 2.0 | 0.00 | 0.00 | 0.01 | 93 | 1008.8 |
| 20260505112926 | 54 | 0 | 0.0 | 0.0 | 0.00 | 0.00 | 0.01 | 94 | 1008.7 |
| 20260505112426 | 54 | 331 | 0.0 | 2.0 | 0.00 | 0.00 | 0.01 | 94 | 1008.7 |
| 20260505111926 | 54 | 0 | 0.0 | 0.0 | 0.00 | 0.00 | 0.01 | 94 | 1008.6 |
| 20260505111426 | 54 | 0 | 0.0 | 0.0 | 0.00 | 0.00 | 0.01 | 94 | 1008.6 |
| 20260505110926 | 54 | 0 | 0.0 | 0.0 | 0.00 | 0.00 | 0.01 | 94 | 1008.5 |
| 20260505110426 | 53 | 0 | 0.0 | 0.0 | 0.01 | 0.00 | 0.01 | 94 | 1008.4 |
| 20260505101927 | 52 | 0 | 0.0 | 0.0 | 0.01 | 0.00 | 0.01 | 94 | 1008.3 |
| 20260505101426 | 52 | 0 | 0.0 | 0.0 | 0.00 | 0.00 | 0.01 | 93 | 1008.3 |
| 20260505100928 | 52 | 0 | 0.0 | 0.0 | 0.00 | 0.00 | 0.01 | 93 | 1008.2 |
| 20260505100426 | 52 | 206 | 0.0 | 2.0 | 0.00 | 0.00 | 0.01 | 92 | 1008.3 |
| 20260505095926 | 52 | 222 | 1.0 | 2.0 | 0.00 | 0.00 | 0.00 | 93 | 1008.4 |
| 20260505095426 | 51 | 300 | 0.0 | 2.0 | 0.00 | 0.00 | 0.00 | 92 | 1008.5 |
| 20260505094927 | 51 | 206 | 0.0 | 1.0 | 0.00 | 0.00 | 0.00 | 92 | 1008.4 |
| 20260505094427 | 51 | 200 | 0.0 | 1.0 | 0.00 | 0.00 | 0.00 | 92 | 1008.3 |
| 20260505093926 | 51 | 0 | 0.0 | 0.0 | 0.00 | 0.00 | 0.00 | 92 | 1008.2 |
| 20260505093428 | 51 | 0 | 0.0 | 0.0 | 0.00 | 0.00 | 0.00 | 92 | 1008.1 |
| 20260505092928 | 51 | 0 | 0.0 | 0.0 | 0.00 | 0.00 | 0.00 | 92 | 1008.0 |
| 20260505092426 | 51 | 209 | 0.0 | 2.0 | 0.00 | 0.00 | 0.00 | 92 | 1007.7 |
| 20260505091926 | 51 | 209 | 1.0 | 2.0 | 0.00 | 0.00 | 0.00 | 92 | 1007.7 |
| 20260505091426 | 51 | 0 | 0.0 | 0.0 | 0.00 | 0.00 | 0.00 | 92 | 1007.7 |
| 20260505090929 | 51 | 0 | 0.0 | 0.0 | 0.00 | 0.00 | 0.00 | 92 | 1007.6 |
| 20260505090427 | 51 | 214 | 0.0 | 1.0 | 0.00 | 0.00 | 0.00 | 92 | 1007.7 |
| 20260505085522 | 51 | 0 | 0.0 | 0.0 | 0.00 | 0.00 | 0.00 | 92 | 1007.6 |
| 20260505084942 | 51 | 0 | 0.0 | 0.0 | 0.00 | 0.00 | 0.00 | 91 | 1007.7 |
| 20260505084427 | 52 | 0 | 0.0 | 0.0 | 0.00 | 0.00 | 0.00 | 91 | 1007.8 |
| 20260505083926 | 52 | 0 | 0.0 | 0.0 | 0.00 | 0.00 | 0.00 | 91 | 1007.7 |
| 20260505083426 | 52 | 0 | 0.0 | 0.0 | 0.00 | 0.00 | 0.00 | 90 | 1007.7 |
| 20260505082927 | 52 | 0 | 0.0 | 0.0 | 0.00 | 0.00 | 0.00 | 90 | 1007.7 |
| 20260505082426 | 52 | 0 | 0.0 | 0.0 | 0.00 | 0.00 | 0.00 | 89 | 1007.8 |
| 20260505081926 | 53 | 0 | 0.0 | 0.0 | 0.00 | 0.00 | 0.00 | 89 | 1007.7 |
| 20260505081428 | 53 | 0 | 0.0 | 0.0 | 0.00 | 0.00 | 0.00 | 89 | 1007.7 |
| 20260505080929 | 53 | 0 | 0.0 | 0.0 | 0.00 | 0.00 | 0.00 | 88 | 1007.8 |
| 20260505080427 | 53 | 0 | 0.0 | 0.0 | 0.00 | 0.00 | 0.00 | 88 | 1007.7 |
| 20260505075929 | 53 | 0 | 0.0 | 0.0 | 0.00 | 0.00 | 0.00 | 88 | 1007.7 |
| 20260505075427 | 54 | 0 | 0.0 | 0.0 | 0.00 | 0.00 | 0.00 | 87 | 1007.7 |
| 20260505074928 | 54 | 0 | 0.0 | 0.0 | 0.00 | 0.00 | 0.00 | 87 | 1007.6 |
| 20260505074427 | 54 | 219 | 0.0 | 1.0 | 0.00 | 0.00 | 0.00 | 86 | 1007.6 |
| 20260505073927 | 55 | 0 | 0.0 | 0.0 | 0.00 | 0.00 | 0.00 | 85 | 1007.5 |
| 20260505073426 | 55 | 0 | 0.0 | 0.0 | 0.00 | 0.00 | 0.00 | 85 | 1007.5 |
| 20260505072927 | 55 | 0 | 0.0 | 0.0 | 0.00 | 0.00 | 0.00 | 84 | 1007.5 |
| 20260505072427 | 55 | 0 | 0.0 | 0.0 | 0.00 | 0.00 | 0.00 | 84 | 1007.5 |
| 20260505071926 | 55 | 246 | 0.0 | 1.0 | 0.00 | 0.00 | 0.00 | 83 | 1007.3 |
| 20260505071427 | 56 | 0 | 0.0 | 0.0 | 0.00 | 0.00 | 0.00 | 83 | 1007.3 |
| 20260505070927 | 56 | 318 | 0.0 | 1.0 | 0.00 | 0.00 | 0.00 | 83 | 1007.5 |
| 20260505070427 | 56 | 328 | 0.0 | 1.0 | 0.00 | 0.00 | 0.00 | 83 | 1007.5 |
| 20260505065926 | 56 | 47 | 1.0 | 2.0 | 0.00 | 0.00 | 0.00 | 83 | 1007.2 |
| 20260505065427 | 55 | 19 | 1.0 | 2.0 | 0.00 | 0.00 | 0.00 | 84 | 1007.3 |
| 20260505064926 | 55 | 239 | 0.0 | 1.0 | 0.00 | 0.00 | 0.00 | 84 | 1007.7 |
| 20260505064426 | 55 | 0 | 0.0 | 0.0 | 0.00 | 0.00 | 0.00 | 84 | 1007.6 |
| 20260505063928 | 55 | 0 | 0.0 | 0.0 | 0.00 | 0.00 | 0.00 | 83 | 1007.6 |
| 20260505063426 | 55 | 0 | 0.0 | 0.0 | 0.00 | 0.00 | 0.00 | 83 | 1007.6 |
| 20260505062927 | 55 | 307 | 0.0 | 1.0 | 0.00 | 0.00 | 0.00 | 83 | 1007.7 |
| 20260505062427 | 56 | 303 | 0.0 | 2.0 | 0.00 | 0.00 | 0.00 | 82 | 1007.6 |
| 20260505061926 | 56 | 0 | 0.0 | 0.0 | 0.00 | 0.00 | 0.00 | 81 | 1007.6 |
| 20260505061427 | 56 | 0 | 0.0 | 0.0 | 0.00 | 0.00 | 0.00 | 80 | 1007.6 |
| 20260505060926 | 57 | 0 | 0.0 | 0.0 | 0.00 | 0.00 | 0.00 | 80 | 1007.6 |
| 20260505060426 | 57 | 0 | 0.0 | 0.0 | 0.00 | 0.00 | 0.00 | 80 | 1007.7 |
| 20260505055927 | 57 | 0 | 0.0 | 0.0 | 0.00 | 0.00 | 0.00 | 79 | 1007.8 |
| 20260505055427 | 57 | 0 | 0.0 | 0.0 | 0.00 | 0.00 | 0.00 | 78 | 1007.7 |
| 20260505054926 | 57 | 0 | 0.0 | 0.0 | 0.00 | 0.00 | 0.00 | 78 | 1007.8 |
| 20260505054427 | 57 | 0 | 0.0 | 0.0 | 0.00 | 0.00 | 0.00 | 78 | 1007.8 |
| 20260505053927 | 58 | 0 | 0.0 | 0.0 | 0.00 | 0.00 | 0.00 | 78 | 1007.9 |
| 20260505053426 | 58 | 0 | 0.0 | 0.0 | 0.00 | 0.00 | 0.00 | 78 | 1007.9 |
| 20260505052927 | 58 | 0 | 0.0 | 0.0 | 0.00 | 0.00 | 0.00 | 77 | 1007.9 |
| 20260505052426 | 58 | 0 | 0.0 | 0.0 | 0.00 | 0.00 | 0.00 | 77 | 1007.9 |
| 20260505051927 | 58 | 0 | 0.0 | 0.0 | 0.00 | 0.00 | 0.00 | 77 | 1007.9 |
| 20260505051426 | 59 | 0 | 0.0 | 0.0 | 0.00 | 0.00 | 0.00 | 76 | 1007.9 |
| 20260505050928 | 59 | 0 | 0.0 | 0.0 | 0.00 | 0.00 | 0.00 | 76 | 1008.0 |
| 20260505050427 | 59 | 0 | 0.0 | 0.0 | 0.00 | 0.00 | 0.00 | 76 | 1007.9 |
| 20260505041426 | 62 | 0 | 0.0 | 0.0 | 0.00 | 0.00 | 0.00 | 68 | 1007.8 |
| 20260505040927 | 63 | 0 | 0.0 | 0.0 | 0.00 | 0.00 | 0.00 | 67 | 1007.8 |
| 20260505040426 | 64 | 0 | 0.0 | 0.0 | 0.00 | 0.00 | 0.00 | 66 | 1007.8 |
| 20260505035927 | 64 | 0 | 0.0 | 0.0 | 0.00 | 0.00 | 0.00 | 64 | 1007.8 |
| 20260505035426 | 64 | 316 | 0.0 | 2.0 | 0.00 | 0.00 | 0.00 | 63 | 1007.7 |
| 20260505034926 | 64 | 0 | 0.0 | 0.0 | 0.00 | 0.00 | 0.00 | 61 | 1007.8 |
| 20260505034426 | 65 | 0 | 0.0 | 0.0 | 0.00 | 0.00 | 0.00 | 60 | 1007.7 |
| 20260505033926 | 65 | 0 | 0.0 | 0.0 | 0.00 | 0.00 | 0.00 | 58 | 1007.6 |
| 20260505033426 | 65 | 0 | 0.0 | 0.0 | 0.00 | 0.00 | 0.00 | 59 | 1007.6 |
| 20260505032927 | 65 | 0 | 0.0 | 0.0 | 0.00 | 0.00 | 0.00 | 59 | 1007.5 |
| 20260505032426 | 65 | 0 | 0.0 | 0.0 | 0.00 | 0.00 | 0.00 | 59 | 1007.6 |
| 20260505031927 | 66 | 0 | 0.0 | 0.0 | 0.00 | 0.00 | 0.00 | 59 | 1007.7 |
| 20260505031426 | 67 | 0 | 0.0 | 0.0 | 0.00 | 0.00 | 0.00 | 57 | 1007.6 |
| 20260505030926 | 68 | 0 | 0.0 | 0.0 | 0.00 | 0.00 | 0.00 | 56 | 1007.6 |
| 20260505030429 | 69 | 0 | 0.0 | 0.0 | 0.00 | 0.00 | 0.00 | 54 | 1007.7 |
| 20260505025929 | 69 | 0 | 0.0 | 0.0 | 0.00 | 0.00 | 0.00 | 51 | 1007.7 |
| 20260505025429 | 69 | 0 | 0.0 | 0.0 | 0.00 | 0.00 | 0.00 | 49 | 1007.7 |
| 20260505024929 | 69 | 243 | 1.0 | 4.0 | 0.00 | 0.00 | 0.00 | 49 | 1007.6 |
| 20260505024428 | 69 | 73 | 0.0 | 2.0 | 0.00 | 0.00 | 0.00 | 50 | 1007.6 |
| 20260505023928 | 69 | 244 | 2.0 | 4.0 | 0.00 | 0.00 | 0.00 | 49 | 1007.6 |
| 20260505023426 | 69 | 228 | 2.0 | 4.0 | 0.00 | 0.00 | 0.00 | 49 | 1007.7 |
| 20260505022928 | 69 | 310 | 0.0 | 1.0 | 0.00 | 0.00 | 0.00 | 49 | 1007.7 |
| 20260505022429 | 70 | 18 | 0.0 | 1.0 | 0.00 | 0.00 | 0.00 | 50 | 1007.7 |
| 20260505021930 | 70 | 0 | 0.0 | 0.0 | 0.00 | 0.00 | 0.00 | 49 | 1007.7 |
| 20260505021429 | 70 | 60 | 2.0 | 5.0 | 0.00 | 0.00 | 0.00 | 48 | 1007.7 |
| 20260505020928 | 70 | 321 | 1.0 | 3.0 | 0.00 | 0.00 | 0.00 | 48 | 1007.7 |
| 20260505020426 | 70 | 112 | 1.0 | 2.0 | 0.00 | 0.00 | 0.00 | 47 | 1007.8 |
| 20260505015926 | 70 | 97 | 1.0 | 3.0 | 0.00 | 0.00 | 0.00 | 48 | 1007.9 |
| 20260505015427 | 71 | 100 | 2.0 | 3.0 | 0.00 | 0.00 | 0.00 | 48 | 1007.8 |
| 20260505014926 | 71 | 71 | 1.0 | 3.0 | 0.00 | 0.00 | 0.00 | 47 | 1007.8 |
| 20260505014426 | 71 | 253 | 1.0 | 5.0 | 0.00 | 0.00 | 0.00 | 47 | 1007.7 |
| 20260505013926 | 71 | 244 | 3.0 | 6.0 | 0.00 | 0.00 | 0.00 | 46 | 1007.7 |
| 20260505013426 | 71 | 275 | 1.0 | 3.0 | 0.00 | 0.00 | 0.00 | 46 | 1007.6 |
| 20260505012926 | 71 | 245 | 1.0 | 3.0 | 0.00 | 0.00 | 0.00 | 46 | 1007.6 |
| 20260505012426 | 71 | 279 | 3.0 | 8.0 | 0.00 | 0.00 | 0.00 | 46 | 1007.5 |
| 20260505011928 | 71 | 43 | 2.0 | 6.0 | 0.00 | 0.00 | 0.00 | 47 | 1007.5 |
| 20260505011427 | 71 | 249 | 2.0 | 4.0 | 0.00 | 0.00 | 0.00 | 46 | 1007.5 |
| 20260505010926 | 71 | 237 | 1.0 | 4.0 | 0.00 | 0.00 | 0.00 | 46 | 1007.3 |
| 20260505010428 | 71 | 266 | 2.0 | 4.0 | 0.00 | 0.00 | 0.00 | 45 | 1007.2 |
| 20260505005928 | 71 | 255 | 1.0 | 4.0 | 0.00 | 0.00 | 0.00 | 46 | 1007.3 |
| 20260505005428 | 71 | 263 | 1.0 | 3.0 | 0.00 | 0.00 | 0.00 | 46 | 1007.2 |
| 20260505004926 | 71 | 233 | 3.0 | 5.0 | 0.00 | 0.00 | 0.00 | 45 | 1007.2 |
| 20260505004426 | 71 | 258 | 2.0 | 4.0 | 0.00 | 0.00 | 0.00 | 45 | 1007.1 |
| 20260505003927 | 71 | 94 | 1.0 | 4.0 | 0.00 | 0.00 | 0.00 | 45 | 1007.0 |
| 20260505003426 | 72 | 248 | 2.0 | 6.0 | 0.00 | 0.00 | 0.00 | 45 | 1006.9 |
| 20260505002927 | 72 | 294 | 1.0 | 3.0 | 0.00 | 0.00 | 0.00 | 45 | 1006.9 |
| 20260505002426 | 73 | 209 | 1.0 | 3.0 | 0.00 | 0.00 | 0.00 | 44 | 1006.9 |
| 20260505001929 | 73 | 0 | 0.0 | 0.0 | 0.00 | 0.00 | 0.00 | 43 | 1006.8 |